Location: Engelmannsreuth
(49.8125°N, 11.6497°E)
Time: 18:48:27
(UTC+00:00)

Cosmos 2100 Rocket - Pass Details

Date: 17 February 2020
Orbit: 955 x 1002 km, 82.9° (Epoch: 30 March)

Event Time Altitude Azimuth Distance (km) Brightness Sun altitude
Rises 04:52:05 0° 348° (NNW) 3,694 6.9 -15.0°
Reaches altitude 10° 04:54:37 10° 346° (NNW) 2,735 6.2 -14.5°
Maximum altitude 05:00:49 67° 266° (W) 1,044 3.9 -13.5°
Drops below altitude 10° 05:06:54 10° 185° (S) 2,688 6.3 -12.6°
Sets 05:09:23 0° 182° (S) 3,626 7.0 -12.2°
